Regional Weather Roundup
Issued by NWS Little Rock, AR

Home | Current Version | Previous Version | Graphics & Text | Print | Product List | Glossary On
Versions: 1 2 3 4 5 6 7 8 9 10 11 12 13 14 15 16 17 18 19 20 21 22 23 24 25 26 27 28 29 30 31
000
ASUS44 KLZK 090305
RWRLZK

WEATHER ROUNDUP FOR ARKANSAS
NATIONAL WEATHER SERVICE LITTLE ROCK AR
900 PM CST THU DEC 08 2016

NOTE: "FAIR" INDICATES FEW OR NO CLOUDS BELOW 12,000 FEET WITH NO
SIGNIFICANT WEATHER AND/OR OBSTRUCTIONS TO VISIBILITY.

ARZ001-003-010-029-090400-
NORTHWEST ARKANSAS

CITY           SKY/WX    TMP DP  RH WIND       PRES   REMARKS
FAYETTEVILLE   CLEAR     22  12  65 N3        30.62S
FORT SMITH     CLEAR     28  11  48 NW6       30.66R WCI  22
HARRISON       CLEAR     22  13  68 NW7       30.59S WCI  13
BENTONVILLE    CLEAR     23   9  54 N5        30.62S WCI  17
ROGERS         CLEAR     21  12  68 N3        30.62R
SILOAM SPGS    CLEAR     19  10  68 N5        30.62S WCI  13
HIGHFILL       CLEAR     20  11  68 CALM      30.62R
SPRINGDALE     CLEAR     23  12  63 NW7       30.63R WCI  15
$$

ARZ004-005-016-090400-
NORTH CENTRAL ARKANSAS

CITY           SKY/WX    TMP DP  RH WIND       PRES   REMARKS
BATESVILLE     CLEAR     28  10  47 W3        30.61S
FLIPPIN        CLEAR     27  10  50 NW8       30.59S WCI  18
MTN HOME       CLEAR     25  13  60 N7        30.60R WCI  17
$$

ARZ040-041-090400-
WEST CENTRAL ARKANSAS

CITY           SKY/WX    TMP DP  RH WIND       PRES   REMARKS
MENA           CLEAR     32  14  47 CALM      30.59S
MOUNT IDA      CLEAR     30  11  45 NW3       30.57R
$$

ARZ009-017-025-026-028-090400-
NORTHEAST ARKANSAS

CITY           SKY/WX    TMP DP  RH WIND       PRES   REMARKS
CORNING        FAIR      28  16  59 NW8       30.60R WCI  20
JONESBORO      CLEAR     30  15  53 CALM      30.59S
NEWPORT        CLEAR     28  17  63 MISG      30.61S
WALNUT RIDGE   CLEAR     28  12  50 NW9       30.60R WCI  20
BLYTHEVILLE    CLEAR     29  21  72 NW8       30.58R WCI  21
$$

ARZ022-023-033-042-044-090400-
CENTRAL ARKANSAS

CITY           SKY/WX    TMP DP  RH WIND       PRES   REMARKS
LITTLE ROCK    CLEAR     28  13  53 N7        30.62R WCI  21
N LITTLE ROCK    N/A     31  13  47 N6        30.63S WCI  25
JACKSONVILLE   CLEAR     30  13  48 NW5       30.60S WCI  26
SEARCY         CLEAR     29  14  53 N3        30.63R
HOT SPRINGS    CLEAR     32  14  47 CALM      30.60S
RUSSELLVILLE   CLEAR     27  15  61 NE3       30.61S
CLINTON        FAIR      30  12  47 CALM      30.61S
$$

ARZ036-090400-
EAST ARKANSAS

CITY           SKY/WX    TMP DP  RH WIND       PRES   REMARKS
WEST MEMPHIS   CLEAR     26  22  84 CALM      30.58R
$$

ARZ050-053-066-070-073-090400-
SOUTHWEST ARKANSAS

CITY           SKY/WX    TMP DP  RH WIND       PRES   REMARKS
ARKADELPHIA    FAIR      30  27  88 CALM      30.62S
CAMDEN         PTCLDY    28  23  80 CALM      30.61S
TEXARKANA      CLEAR     31  18  58 CALM      30.61R
EL DORADO      PTCLDY    34  24  67 N3        30.59R
DE QUEEN       CLEAR     27  21  78 CALM      30.61S
$$

ARZ056-057-069-090400-
SOUTHEAST ARKANSAS

CITY           SKY/WX    TMP DP  RH WIND       PRES   REMARKS
PINE BLUFF     CLEAR     31  19  61 NW5       30.60S WCI  26
STUTTGART      CLEAR     28  19  69 N9        30.60S WCI  20
MONTICELLO     PTCLDY    33  18  53 CALM      30.59S

$$






USA.gov is the U.S. government's official web portal to all federal, state and local government web resources and services.